Location: Complexul Astronomic Baia Mare
(47.6577°N, 23.5639°E)
Time: 13:28:08
(UTC+03:00)

ISS - Pass Details

Date: 03 June 2017
Orbit: 401 x 408 km, 51.6° (Epoch: 23 June)

Event Time Altitude Azimuth Distance (km) Brightness Sun altitude
Rises 22:13:47 0° 288° (WNW) 2,340 1.2 -8.0°
Reaches altitude 10° 22:15:57 10° 295° (WNW) 1,477 0.3 -8.2°
Maximum altitude 22:19:08 43° 9° (N) 586 -2.7 -8.6°
Drops below altitude 10° 22:22:19 10° 83° (E) 1,472 -1.3 -8.9°
Enters shadow 22:23:40 - 88° (E) 2,012 -0.7 -9.1°
